Location: Ponte Samoggia
(44.5667°N, 11.1333°E)
Time: 21:28:56
(UTC+00:00)

Thor Agena Rocket - Pass Details

Date: 26 May 2022
Orbit: 760 x 807 km, 99.0° (Epoch: 29 June)

Event Time Altitude Azimuth Distance (km) Brightness Sun altitude
Rises 00:06:42 0° 17° (NNE) 3,322 8.3 -23.2°
Reaches altitude 10° 00:09:05 10° 21° (NNE) 2,392 7.2 -23.1°
Maximum altitude 00:14:19 61° 102° (ESE) 914 3.8 -22.8°
Enters shadow 00:15:38 46° 155° (SSE) 1,070 3.9 -22.8°
